This demonstration page uses our WeatherBlox Daily Observations layout. Learn more.

Left ArrowRight Arrow

36.17497, -115.13722

Hourly Observations for January 15, 2017

Temp ( °F °C ) Dew Point ( °F °C ) Humidity (%) Winds ( mph kmh ) Pressure ( in mb ) Visibility ( mi km ) Precip ( " mm )
12:53 am 00:53 Cloudy 50 10 32 undefined 50 50 N 12 19 30.05 1018 10 16 N/A
1:53 am 01:53 Cloudy 50 10 32 undefined 50 50 N 12 19 30.05 1018 10 16 N/A
2:53 am 02:53 Cloudy 50 10 30 -1.1 46 46 NNW 12 19 30.04 1017 10 16 N/A
3:53 am 03:53 Cloudy 49 9.4 30 -1.1 48 48 N 9 15 30.06 1018 10 16 N/A
4:53 am 04:53 Clear 47 8.3 30 -1.1 52 52 N 17 28 30.05 1018 10 16 N/A
5:53 am 05:53 Clear 46 7.8 30 -1.1 54 54 NW 14 22 30.07 1018 10 16 N/A
6:53 am 06:53 Sunny 47 8.3 31 -0.6 54 54 NW 10 17 30.08 1019 10 16 N/A
7:53 am 07:53 Sunny 47 8.3 29 -1.7 50 50 N 20 31 30.08 1019 10 16 N/A
8:53 am 08:53 Sunny 49 9.4 29 -1.7 46 46 NNW 12 19 30.10 1019 10 16 N/A
9:53 am 09:53 Sunny 51 10.6 30 -1.1 44 44 NNE 15 24 30.11 1020 10 16 N/A
10:53 am 10:53 Sunny 51 10.6 30 -1.1 44 44 SE 9 15 30.10 1019 10 16 N/A
11:53 am 11:53 Sunny 53 11.7 30 -1.1 41 41 N N/A 30.06 1018 10 16 N/A
12:53 pm 12:53 Sunny 56 13.3 30 -1.1 37 37 E 6 9 30.04 1017 10 16 N/A
1:53 pm 13:53 Sunny 56 13.3 30 -1.1 37 37 ESE 5 7 30.04 1017 10 16 N/A
2:53 pm 14:53 Sunny 56 13.3 29 -1.7 36 36 N N/A 30.04 1017 10 16 N/A
3:53 pm 15:53 Sunny 56 13.3 29 -1.7 36 36 SSW 3 6 30.03 1017 10 16 N/A
4:53 pm 16:53 Clear 55 12.8 30 -1.1 38 38 N N/A 30.04 1017 10 16 N/A
5:53 pm 17:53 Clear 53 11.7 31 -0.6 43 43 N N/A 30.05 1018 10 16 N/A
6:53 pm 18:53 Clear 50 10 32 undefined 50 50 N N/A 30.06 1018 10 16 N/A
7:53 pm 19:53 Clear 48 8.9 33 0.6 56 56 NNW 6 9 30.07 1018 10 16 N/A
8:53 pm 20:53 Clear 45 7.2 34 1.1 66 66 SE 3 6 30.09 1019 10 16 N/A
9:53 pm 21:53 Clear 45 7.2 34 1.1 66 66 N 5 7 30.10 1019 10 16 N/A
10:53 pm 22:53 Clear 45 7.2 33 0.6 63 63 WNW 5 7 30.11 1020 10 16 N/A
11:53 pm 23:53 Clear 45 7.2 33 0.6 63 63 N N/A 30.11 1020 10 16 N/A

Powered by AerisWeather